Location: Alt?nova Orta
(36.9295°N, 30.7847°E)
Time: 18:25:48
(UTC+00:00)

USA 116 - Pass Details

Date: 17 February 2020
Orbit: 405 x 834 km, 97.9° (Epoch: 18 November)

Event Time Altitude Azimuth Distance (km) Brightness Sun altitude
Rises 04:03:10 0° 183° (S) 2,498 7.2 -8.8°
Reaches altitude 10° 04:05:23 10° 193° (SSW) 1,576 6.0 -8.4°
Maximum altitude 04:08:28 34° 260° (W) 719 3.8 -7.8°
Drops below altitude 10° 04:11:23 10° 328° (NNW) 1,491 5.6 -7.2°
Sets 04:13:26 0° 338° (NNW) 2,341 6.6 -6.8°
